﻿Дата;Google;AdRiver
2020-10-08;1;0
2020-04-23;2;0
2020-01-19;1;0
2019-01-28;1;0
2017-03-06;1;0
2017-02-02;1;0
2017-01-10;1;0
2017-01-09;1;0
2017-01-05;1;0
2017-01-04;1;0
2017-01-03;1;0
2016-12-23;1;0
2016-10-21;1;0
2016-10-03;1;0
2016-08-08;1;0
2016-07-06;1;0
2016-05-20;1;0
2016-04-14;1;0
2016-03-18;1;0
2016-03-14;1;0
2016-01-21;1;0
2016-01-05;1;0
2016-01-01;1;0
2015-12-08;1;0
2015-09-30;1;0
2015-09-07;1;0
2015-08-31;1;0
2015-08-25;1;0
2015-08-13;1;0
2015-08-11;2;0
2015-08-05;1;0
2015-07-28;1;0
2015-07-21;1;0
2015-07-20;1;0
2015-07-19;1;0
2015-07-17;1;0
2015-07-16;1;0
2015-07-15;1;0
2015-07-12;1;0
2015-07-10;2;0
2015-07-09;1;0
2015-07-08;1;0
2015-07-07;1;0
2015-06-28;1;0
2015-06-25;1;0
2015-06-24;1;0
2015-06-18;1;0
2015-06-17;1;0
2015-06-13;2;0
2015-06-12;1;0
2015-06-11;1;0
2015-06-08;2;0
2015-06-06;1;0
2015-06-02;1;0
2015-05-22;1;0
2015-05-18;1;0
2015-05-07;1;0
2015-03-22;1;0
2015-03-16;1;0
2015-03-12;1;0
2015-03-02;2;0
2015-02-27;1;0
2015-01-30;1;0
2015-01-28;1;0
2015-01-26;1;0
2015-01-05;14;0
2015-01-04;10;0
2015-01-03;9;0
2015-01-02;12;0
2015-01-01;13;0
2014-12-31;13;0
2014-12-30;9;0
2014-12-29;11;0
2014-12-28;8;0
2014-12-27;5;0
2014-12-26;6;0
2014-12-25;10;0
2014-12-24;7;0
2014-12-23;7;0
2014-12-22;7;0
2014-12-21;11;0
2014-12-20;8;0
2014-12-19;9;0
2014-12-18;7;0
2014-12-17;8;0
2014-12-16;7;0
2014-12-15;8;0
2014-12-14;13;0
2014-12-13;9;0
2014-12-12;10;0
2014-12-11;5;0
2014-12-10;1;0
2014-12-08;1;0
2014-12-07;10;0
2014-12-06;2;0
2014-12-05;6;0
2014-12-04;11;0
2014-12-03;9;0
2014-12-02;10;0
2014-12-01;9;0
2014-11-30;10;0
2014-11-29;7;0
2014-11-28;9;0
2014-11-27;4;0
2014-11-26;6;0
2014-11-25;4;0
2014-11-24;5;0
2014-11-22;1;0
2014-11-21;7;0
2014-11-20;8;0
2014-11-19;8;0
2014-11-18;6;0
2014-11-17;7;0
2014-11-16;5;0
2014-11-15;5;0
2014-11-14;3;0
2014-11-13;4;0
2014-11-12;8;0
2014-11-11;4;0
2014-11-10;7;0
2014-11-09;9;0
2014-11-08;4;0
2014-11-07;4;0
2014-11-06;6;0
2014-11-05;3;0
2014-11-04;8;0
2014-11-03;5;0
2014-11-02;7;0
2014-11-01;4;0
2014-10-31;5;0
2014-10-30;6;0
2014-10-29;5;0
2014-10-28;5;0
2014-10-27;9;0
2014-10-26;6;0
2014-10-25;6;0
2014-10-24;10;0
2014-10-23;9;0
2014-10-22;9;0
2014-10-21;12;0
2014-10-20;14;0
2014-10-19;5;0
2014-10-18;9;0
2014-10-17;8;0
2014-10-16;5;0
2014-09-19;6;0
2014-09-18;8;0
2014-09-17;5;0
2014-09-16;7;0
2014-09-15;12;0
2014-09-11;5;0
2014-09-10;9;0
2014-09-09;3;0
2014-09-08;8;0
2014-09-05;8;0
2014-09-04;7;0
2014-09-03;3;0
2014-09-02;9;0
2014-09-01;6;0
2014-08-30;1;0
2014-08-29;3;0
2014-08-28;6;0
2014-08-27;3;0
2014-08-26;3;0
2014-08-25;7;0
2014-08-23;1;0
2014-08-21;2;0
2014-08-20;2;0
2014-08-19;3;0
2014-08-18;4;0
2014-08-15;7;0
2014-08-14;6;0
2014-08-13;1;0
2014-08-12;5;0
2014-08-11;4;0
2014-08-08;4;0
2014-08-07;4;0
2014-08-06;4;0
2014-08-05;3;0
2014-08-04;5;0
2014-08-01;9;0
2014-07-30;4;0
2014-07-29;6;0
2014-07-28;3;0
2014-07-25;8;0
2014-07-24;3;0
2014-07-23;7;0
2014-07-22;4;0
2014-07-21;5;0
2014-07-18;6;0
2014-07-17;7;0
2014-07-16;12;0
2014-07-15;8;0
2014-07-14;8;0
2014-07-13;1;0
2014-07-11;7;0
2014-07-10;9;0
2014-07-09;7;0
2014-07-08;11;0
2014-07-07;14;0
2014-07-04;5;0
2014-07-03;14;0
2014-07-01;11;0
2014-06-30;16;0
2014-06-27;13;0
2014-06-26;5;0
2014-06-25;3;0
2014-06-24;3;0
2014-06-23;6;0
2014-06-20;2;0
2014-06-19;1;0
2014-06-18;4;0
2014-06-17;5;0
2014-06-16;9;0
2014-06-13;6;0
2014-06-12;5;0
2014-06-11;6;0
2014-06-10;9;0
2014-06-09;25;0
2014-06-06;6;0
2014-06-05;13;0
2014-06-04;8;0
2014-06-03;7;0
2014-06-02;9;0
2014-05-30;8;0
2014-05-29;15;0
2014-05-28;15;0
2014-05-27;16;0
2014-05-26;17;0
2014-05-25;17;0
2014-05-24;18;0
2014-05-23;10;0
2014-05-22;18;0
2014-05-21;14;0
2014-05-20;18;0
2014-05-19;21;0
2014-05-18;1;0
2014-05-17;8;0
2014-05-16;20;0
2014-05-15;15;0
2014-05-14;11;0
2014-05-13;21;0
2014-05-12;14;0
2014-05-11;17;0
2014-05-10;12;0
2014-05-09;7;0
2014-05-08;21;0
2014-05-07;17;0
2014-05-06;22;0
2014-05-05;17;0
2014-05-04;22;0
2014-05-03;19;0
2014-05-02;15;0
2014-05-01;12;0
2014-04-30;13;0
2014-04-29;19;0
2014-04-28;10;0
2014-04-27;20;0
2014-04-26;18;0
2014-04-25;15;0
2014-04-24;18;0
2014-04-23;12;0
2014-04-22;16;0
2014-04-21;17;0
2014-04-20;22;0
2014-04-19;12;0
2014-04-18;13;0
2014-04-17;18;0
2014-04-16;19;0
2014-04-15;13;0
2014-04-14;12;0
2014-04-13;19;0
2014-04-12;17;0
2014-04-10;1;0
2014-04-04;6;0
2014-04-03;8;0
2014-04-02;6;0
2014-04-01;7;0
2014-03-31;7;0
2014-03-30;8;0
2014-03-29;5;0
2014-03-28;5;0
2014-03-27;6;0
2014-03-26;5;0
2014-03-25;7;0
2014-03-24;11;0
2014-03-23;5;0
2014-03-22;9;0
2014-03-21;8;0
2014-03-20;8;0
2014-03-19;3;0
2014-03-18;12;0
2014-03-17;14;0
2014-03-16;8;0
2014-03-15;7;0
2014-03-14;9;0
2014-03-13;8;0
2014-03-12;6;0
2014-03-11;6;0
2014-03-10;6;0
2014-03-09;7;0
2014-03-08;7;0
2014-03-07;7;0
2014-03-06;6;0
2014-03-05;5;0
2014-03-04;10;0
2014-03-03;9;0
2014-03-02;12;0
2014-03-01;9;0
2014-02-28;15;0
2014-02-27;11;0
2014-02-26;8;0
2014-02-25;13;1
2014-02-24;9;0
2014-02-23;13;0
2014-02-22;14;0
2014-02-21;8;0
2014-02-20;11;0
2014-02-19;8;0
2014-02-18;13;0
2014-02-17;13;0
2014-02-16;18;0
2014-02-15;15;0
2014-02-14;16;0
2014-02-13;12;0
2014-02-11;7;0
2014-02-10;20;0
2014-02-09;19;0
2014-02-08;20;0
2014-02-07;21;0
2014-02-06;19;0
2014-02-05;20;0
2014-02-04;18;0
2014-01-31;18;0
2014-01-30;24;0
2014-01-29;22;0
2014-01-28;14;0
2014-01-27;17;0
2014-01-26;18;0
2014-01-25;13;0
2014-01-24;11;0
2014-01-23;15;0
2014-01-22;13;0
2014-01-21;13;0
2014-01-20;19;0
2014-01-19;15;0
2014-01-18;17;0
2014-01-17;10;0
2014-01-16;12;0
2014-01-15;16;0
2014-01-14;9;0
2014-01-13;11;0
2014-01-12;11;0
2014-01-11;8;0
2014-01-10;4;0
2014-01-09;8;0
2014-01-08;1;0
2013-12-23;2;0
2013-12-22;17;0
2013-12-21;5;0
2013-12-20;5;0
2013-12-19;11;0
2013-12-18;1;0
2013-12-17;5;0
2013-12-16;4;0
2013-12-12;8;0
2013-12-11;9;0
2013-12-10;8;0
2013-12-09;10;0
2013-12-08;15;0
2013-12-07;6;0
2013-12-06;8;0
2013-12-05;7;0
2013-12-04;14;0
2013-12-03;16;0
2013-12-02;14;0
2013-12-01;7;0
2013-11-30;10;0
2013-11-29;11;0
2013-11-28;8;0
2013-11-27;8;0
2013-11-26;13;0
2013-11-24;11;1
2013-11-23;15;0
2013-11-22;10;0
2013-11-21;9;0
2013-11-20;8;1
2013-11-19;12;0
2013-11-18;4;0
2013-11-17;8;0
2013-11-16;9;0
2013-11-15;12;0
2013-11-14;8;0
2013-11-13;7;0
2013-11-12;11;0
2013-11-11;4;0
2013-11-10;8;0
2013-11-09;10;0
2013-11-08;7;0
2013-11-07;13;0
2013-11-06;5;0
2013-11-05;11;0
2013-11-04;6;0
2013-11-02;9;0
2013-11-01;12;0
2013-10-31;10;0
2013-10-30;9;0
2013-10-29;6;0
2013-10-28;8;0
2013-10-27;9;0
2013-10-26;4;0
2013-10-25;1;0
2013-10-24;3;0
2013-10-23;3;0
2013-10-22;7;0
2013-10-14;1;0
2013-10-13;3;0
2013-10-12;3;0
2013-10-11;5;0
2013-10-10;4;0
2013-10-09;3;0
2013-10-08;3;0
2013-10-07;6;0
2013-10-06;8;0
2013-10-05;9;0
2013-10-04;4;0
2013-10-03;7;0
2013-10-02;4;0
2013-10-01;3;0
2013-09-29;7;0
2013-09-28;5;0
2013-09-27;6;0
2013-09-26;4;0
2013-09-25;7;0
2013-09-24;4;0
2013-09-23;7;0
2013-09-22;9;1
2013-09-21;14;0
2013-09-20;7;0
2013-09-19;5;0
2013-09-18;4;0
2013-09-17;1;0
2013-09-16;6;0
2013-09-15;2;0
2013-09-13;5;0
2013-09-12;1;0
2013-09-11;1;0
2013-09-10;1;0
2013-09-09;2;0
2013-09-08;1;0
2013-09-06;1;0
2013-09-04;1;0
2013-09-03;2;0
2013-09-02;1;0
2013-08-31;1;0
2013-08-27;1;0
2013-08-26;5;0
2013-08-25;3;0
2013-08-24;3;0
2013-08-23;2;0
2013-08-22;5;0
2013-08-21;1;0
2013-08-20;2;0
2013-08-19;1;0
2013-08-15;2;0
2013-08-14;2;0
2013-08-13;1;0
2013-08-12;1;0
2013-08-11;7;0
2013-08-09;3;0
2013-08-08;1;0
2013-08-07;1;0
2013-08-04;1;0
2013-08-03;3;0
2013-08-01;1;0
2013-07-31;1;0
2013-07-29;1;0
2013-07-28;2;0
2013-07-27;2;0
2013-07-24;2;0
2013-07-13;3;0
2013-07-11;1;0
2013-07-06;1;0
2013-07-05;1;0
2013-07-04;2;0
2013-07-03;3;0
2013-07-02;4;0
2013-07-01;8;0
2013-06-30;5;0
2013-06-29;6;0
2013-06-28;4;0
2013-06-27;3;0
2013-06-26;3;0
2013-06-25;5;0
2013-06-24;1;0
2013-06-21;1;0
2013-06-17;1;0
2013-06-12;1;0
2013-06-11;2;0
2013-06-03;1;0
2013-05-27;2;0
2013-05-24;1;0
2013-05-22;2;0
2013-05-13;1;0
2013-05-12;1;0
2013-05-11;1;0
2013-05-08;1;0
2013-05-05;1;0
2013-05-04;1;0
2013-05-03;1;0
2013-04-30;1;0
2013-04-28;1;0
2013-04-23;1;0
2013-04-22;1;0
2013-04-20;1;0
2013-04-16;3;0
2013-04-15;2;0
2013-04-14;2;0
2013-04-13;1;0
2013-04-10;1;0
2013-04-09;3;0
2013-04-08;1;0
2013-04-07;1;0
2013-04-06;2;0
2013-04-05;2;0
2013-04-04;2;0
2013-04-03;3;0
2013-04-02;6;0
2013-04-01;3;0
2013-03-27;1;0
2013-03-26;1;0
2013-03-25;2;0
2013-03-24;2;0
2013-03-23;2;0
2013-03-22;2;0
2013-03-19;1;0
2013-03-18;4;0
2013-03-16;4;0
2013-03-14;2;0
2013-03-13;2;0
2013-03-12;2;0
2013-03-11;3;0
2013-03-06;1;0
2013-03-03;1;0
2013-03-02;2;0
2013-03-01;4;0
2013-02-28;1;0
2013-02-27;3;0
2013-02-26;1;0
2013-02-25;3;0
2013-02-24;1;0
2013-02-23;1;0
2013-02-21;2;0
2013-02-20;1;0
2013-02-19;4;0
2013-02-18;2;0
2013-02-17;41;0
2013-02-16;47;0
2013-02-15;25;0
2013-02-14;16;0
2013-02-13;13;0
2013-02-12;20;0
2013-02-10;6;0
2013-02-09;14;0
2013-02-08;14;0
2013-02-07;9;0
2013-02-06;9;0
2013-02-05;5;0
2013-02-04;8;0
2013-02-03;14;0
2013-02-02;10;0
2013-02-01;8;0
2013-01-31;8;0
2013-01-30;12;0
2013-01-29;5;0
2013-01-28;10;0
2013-01-27;13;0
2013-01-26;5;0
2013-01-25;6;0
2013-01-24;5;0
2013-01-23;11;0
2013-01-22;6;0
2013-01-21;10;0
2013-01-20;12;0
2013-01-19;5;0
2013-01-18;8;0
2013-01-17;6;0
2013-01-16;5;0
2013-01-15;6;0
2013-01-13;3;0
2013-01-12;3;0
2013-01-11;3;0
2013-01-10;3;0
2013-01-09;9;0
2013-01-08;4;0
2013-01-07;6;0
2013-01-06;5;0
2013-01-05;6;0
2013-01-04;5;0
2013-01-03;6;0
2013-01-02;5;0
2013-01-01;1;0
2012-12-30;1;0
2012-12-27;2;0
2012-12-25;2;0
2012-12-24;1;0
2012-12-23;1;0
2012-12-19;1;0
2012-12-18;3;0
2012-12-17;1;0
2012-12-16;3;0
2012-12-14;1;0
2012-12-12;1;0
2012-12-11;1;0
2012-12-09;1;0
2012-12-07;1;0
2012-12-06;1;0
2012-12-05;1;0
2012-12-04;2;0
2012-12-03;1;0
2012-10-09;3;0
2012-10-08;6;0
2012-10-07;4;0
2012-10-06;1;0
2012-10-05;4;0
2012-10-04;3;0
2012-10-03;1;0
2012-10-02;4;0
2012-10-01;1;0
2012-09-30;6;0
2012-09-27;3;0
2012-09-26;1;0
2012-09-24;1;0
2012-09-17;2;0
2012-09-16;2;0
2012-09-15;3;0
2012-09-14;3;0
2012-09-13;3;0
2012-09-12;1;0
2012-09-11;4;0
2012-09-10;4;0
2012-09-09;2;0
2012-09-08;1;0
2012-09-07;3;0
2012-09-06;3;0
2012-09-04;1;0
2012-08-31;2;0
2012-08-30;2;0
2012-08-29;2;0
2012-08-27;1;0
2012-08-26;1;0
2012-08-24;1;0
2012-08-22;1;0
2012-08-20;1;0
2012-08-15;1;0
2012-08-13;1;0
2012-08-12;2;0
2012-08-10;1;0
2012-08-09;1;0
2012-08-08;1;0
2012-07-16;1;0
2012-07-15;3;0
2012-07-14;1;0
2012-07-13;2;0
2012-07-12;1;0
2012-07-11;3;0
2012-07-10;1;0
2012-07-08;1;0
2012-07-06;2;0
2012-07-05;2;0
2012-07-04;2;0
2012-06-28;2;0
2012-06-25;1;0
2012-06-22;1;0
2012-06-20;1;0
2012-06-18;1;0
2012-06-14;2;0
2012-06-12;1;0
2012-06-08;1;0
2012-06-06;1;0
2012-06-05;1;0
2012-05-31;1;0
2012-05-30;2;0
2012-05-28;2;0
2012-05-26;2;0
2012-05-25;1;0
2012-05-21;1;0
2012-05-19;1;0
2012-05-18;1;0
2012-05-15;1;0
2012-05-13;1;0
2012-05-10;1;0
2012-05-05;1;0
2012-04-27;1;0
2012-04-26;1;0
2012-04-25;1;0
2012-04-23;1;0
2012-04-22;1;0
2012-04-18;1;0
2012-04-17;4;0
2012-04-15;3;0
2012-04-14;4;0
2012-04-12;1;0
2012-04-11;1;0
2012-04-08;2;0
2012-04-06;3;0
2012-04-03;2;0
2012-04-01;2;0
2012-03-31;1;0
2012-03-30;1;0
2012-03-28;2;0
2012-03-27;4;0
2012-03-26;1;0
2012-03-25;2;0
2012-03-23;3;0
2012-03-21;7;0
2012-03-20;6;0
2012-03-19;4;0
2012-03-18;3;0
2012-03-16;2;0
2012-03-14;3;0
2012-03-13;3;0
2012-03-12;4;0
2012-03-11;4;0
2012-03-06;2;0
2012-03-05;2;0
2012-03-03;1;0
2012-03-01;1;0
2012-02-29;3;0
2012-02-25;1;0
2012-02-21;1;0
2012-02-20;6;0
2012-02-19;4;0
2012-02-18;2;0
2012-02-17;2;0
2012-02-16;1;0
2012-02-15;2;0
2012-02-14;3;0
2012-02-13;14;0
2012-02-12;13;0
2012-02-11;1;0
2012-02-10;4;0
2012-02-09;3;0
2012-02-08;3;0
2012-02-07;7;0
2012-02-06;7;0
2012-02-05;7;0
2012-02-04;3;0
2012-02-03;4;0
2012-02-02;1;0
2012-02-01;3;0
2012-01-30;2;0
2012-01-29;1;0
2012-01-28;2;0
2012-01-27;4;0
2012-01-26;3;0
2012-01-25;2;0
2012-01-23;3;0
2012-01-20;2;0
2012-01-18;2;0
2012-01-17;1;0
2012-01-16;2;0
2012-01-14;1;0
2012-01-12;8;0
2012-01-11;3;0
2012-01-10;2;0
2012-01-09;1;0
2012-01-06;2;0
2012-01-02;3;0
2011-12-29;2;0
2011-12-28;1;0
2011-12-27;2;0
2011-12-26;4;0
2011-12-25;6;0
2011-12-24;1;0
2011-12-23;2;0
2011-12-22;8;0
2011-12-21;3;0
2011-12-20;9;0
2011-12-19;7;0
2011-12-18;5;0
2011-12-17;8;0
2011-12-16;6;0
2011-12-15;8;0
2011-12-14;6;0
2011-12-13;4;0
2011-12-12;7;0
2011-12-11;9;0
2011-12-10;4;0
2011-12-09;5;0
2011-12-08;10;0
2011-12-07;11;0
2011-12-06;12;0
2011-12-05;11;0
2011-12-04;3;0
2011-12-03;3;0
2011-12-02;3;0
2011-12-01;1;0
2011-08-08;2;0
2011-08-07;20;0
2011-08-06;16;0
2011-08-05;17;0
2011-08-04;22;0
2011-08-03;12;0
2011-08-02;10;0
2011-08-01;1;0
2011-06-29;6;0
2011-06-28;4;0
2011-06-27;2;0
2011-06-26;3;0
2011-06-25;1;0
2011-06-24;3;0
2011-06-23;2;0
2011-06-20;2;0
2011-06-19;2;0
2011-06-18;3;0
2011-06-17;4;0
2011-06-16;2;0
2011-06-15;1;0
2011-06-13;1;0
2011-06-11;1;0
2011-06-09;1;0
